[[{"header":{"parameterUnit":"m.s-1","parameterCategory":1,"la1":30.2991,"la2":30.254,"lo1":-89.0895,"lo2":-89.0444,"dy":0.0017,"dx":0.0017,"nx":28,"ny":28,"refTime":"2023-11-07T03:00:00:Z","depth":0,"parameterNumber":2,"parameterNumberName":"U-component_of_WINDS"},"data":[0,0,0,0,0,0,0,0,0,0,0,0,0,0,0,0,0,0,0,0,0,0,0,0,0,0,0,0,0,0,0,0,0,0,0,0,0,0,0,0,0,0,0,0,0,0,0,0,0,0,0,0,0,0,0,0,0,0,-1.0411,-1.041,0,-1.0357,-1.0356,-1.0356,-1.0252,-1.025,-1.0248,-1.0246,-1.0194,-1.0195,-1.0195,0,0,0,0,0,0,0,0,0,0,0,0,0,-1.0427,-1.0427,-1.0411,-1.041,-1.0409,-1.0357,-1.0356,-1.0356,-1.0252,-1.025,-1.0247,-1.0245,-1.0194,-1.0195,-1.0195,0,0,0,0,0,0,0,0,0,0,0,0,0,-1.0401,-1.0427,-1.0411,-1.0351,-1.0345,-1.0357,-1.0356,-1.0355,-1.0253,-1.0249,-1.0246,-1.0244,-1.0194,-1.0195,-1.0195,-1.0262,0,0,-1.0198,-1.0198,0,0,0,0,0,0,0,0,-1.0403,-1.0401,-1.0361,-1.0355,-1.0349,-1.0308,-1.0343,-1.0324,-1.0253,-1.0288,-1.0246,-1.0242,-1.0235,-1.0232,-1.0229,-1.0259,-1.0257,-1.0198,-1.0198,-1.0199,-1.0199,0,0,0,0,0,0,0,-1.0405,-1.0402,-1.0389,-1.036,-1.0353,-1.0328,-1.0321,-1.0339,-1.0279,-1.0285,-1.0277,-1.0272,-1.0231,-1.0228,-1.0227,-1.0256,-1.0198,-1.0199,-1.0199,-1.0199,-1.0338,-1.0341,0,0,0,0,0,0,-1.0415,-1.0405,-1.0391,-1.0388,-1.0369,-1.033,-1.0323,-1.0324,-1.0279,-1.0269,-1.0275,-1.0267,-1.0228,-1.0226,-1.0225,-1.0298,-1.0199,-1.0199,-1.02,-1.0335,-1.0339,-1.0343,0,0,0,0,0,0,-1.0415,-1.0414,-1.0393,-1.0394,-1.0389,-1.0333,-1.0336,-1.0325,-1.0322,-1.0271,-1.026,-1.0282,-1.0226,-1.0223,-1.0253,-1.0295,-1.02,-1.0201,-1.0331,-1.0336,-1.0341,-1.0447,0,0,0,0,0,0,-1.0416,-1.0415,-1.0439,-1.0395,-1.039,-1.0422,-1.0339,-1.0326,-1.0323,-1.0313,-1.0276,-1.0267,-1.0223,-1.0252,-1.0254,-1.0294,-1.0201,-1.0327,-1.0334,-1.0339,-1.044,-1.0455,-1.0468,0,0,0,0,0,-1.0417,-1.0472,-1.0441,-1.044,-1.0418,-1.0424,-1.0421,-1.0369,-1.0327,-1.0351,-1.0318,-1.0268,-1.0291,-1.0256,-1.0257,-1.0299,-1.0324,-1.0332,-1.0339,-1.0433,-1.0452,-1.0468,0,0,0,0,0,0,-1.0523,-1.0465,-1.043,-1.0472,-1.0454,-1.0407,-1.0435,-1.0391,-1.0385,-1.0376,-1.0313,-1.0306,-1.0344,-1.0324,-1.0287,-1.036,-1.03,-1.0307,-1.0371,-1.0389,-1.0403,-1.0406,-1.0202,0,0,0,0,0,-1.0552,-1.056,-1.051,-1.0552,-1.0544,-1.0492,-1.0493,-1.0454,-1.0433,-1.0425,-1.0395,-1.0377,-1.038,-1.0384,-1.0384,-1.0437,-1.0427,-1.0466,-1.0481,-1.0493,-1.05,-1.0526,-1.0542,-1.0366,-1.0366,-1.0366,0,0,-1.061,-1.058,-1.0589,-1.0572,-1.0554,-1.0565,-1.0486,-1.0502,-1.0509,-1.0428,-1.0453,-1.0431,-1.0407,-1.0449,-1.0465,-1.0434,-1.0546,-1.0502,-1.0512,-1.0512,-1.0535,-1.0551,-1.0566,-1.0371,-1.037,-1.037,0,0,-1.0722,-1.07,-1.0732,-1.0715,-1.0687,-1.0652,-1.066,-1.062,-1.0601,-1.0626,-1.0564,-1.0574,-1.0581,-1.0566,-1.056,-1.0667,-1.062,-1.0669,-1.0743,-1.0769,-1.0783,-1.0795,-1.0832,-1.0847,-1.0677,-1.0677,-1.0677,0,-1.0798,-1.0812,-1.0755,-1.0774,-1.0768,-1.0694,-1.0727,-1.0713,-1.0688,-1.0686,-1.0651,-1.0657,-1.0637,-1.0673,-1.0699,-1.0697,-1.0704,-1.0672,-1.0786,-1.0797,-1.0807,-1.0842,-1.0856,-1.0683,-1.0682,-1.0682,-1.0681,0,-1.0907,-1.0917,-1.0947,-1.0922,-1.0921,-1.0947,-1.0894,-1.09,-1.0862,-1.0831,-1.0857,-1.0829,-1.0822,-1.0828,-1.0792,-1.086,-1.0841,-1.0797,-1.0734,-1.0831,-1.0863,-1.0876,-1.0691,-1.0689,-1.0687,-1.0686,0,0,-1.1082,-1.1027,-1.1038,-1.1026,-1.0991,-1.0998,-1.1021,-1.1013,-1.1018,-1.1004,-1.1022,-1.1029,-1.0988,-1.0981,-1.0943,-1.0966,-1.1052,-1.0919,-1.0917,-1.0943,-1.1124,-1.1156,-1.1172,-1.1021,-1.1023,-1.1025,-1.1125,0,-1.1185,-1.122,-1.1169,-1.1216,-1.1224,-1.1155,-1.1175,-1.1156,-1.1128,-1.1132,-1.1102,-1.1107,-1.1053,-1.1048,-1.1069,-1.1037,-1.1087,-1.1029,-1.1037,-1.1038,-1.1043,-1.1189,-1.1223,-1.1318,-1.1137,-1.1139,-1.1141,0,-1.1309,-1.13,-1.1346,-1.1307,-1.1309,-1.1328,-1.1316,-1.1321,-1.1299,-1.1277,-1.1269,-1.1223,-1.1244,-1.1185,-1.1212,-1.1174,-1.1175,-1.116,-1.1162,-1.116,-1.1094,-1.1189,-1.1347,-1.1361,-1.116,-1.1159,-1.1157,0,-1.1431,-1.143,-1.1457,-1.145,-1.1406,-1.142,-1.1403,-1.1377,-1.1375,-1.1366,-1.1364,-1.1358,-1.1355,-1.1352,-1.1306,-1.1267,-1.1339,-1.1276,-1.1321,-1.1322,-1.1337,-1.1337,-1.1497,-1.1341,-1.1341,-1.1341,-1.134,0,-1.155,-1.1581,-1.1511,-1.1528,-1.1561,-1.1504,-1.1539,-1.1514,-1.1492,-1.1504,-1.1444,-1.1457,-1.1396,-1.1402,-1.1367,-1.1394,-1.1394,-1.1376,-1.1366,-1.138,-1.1383,-1.1378,-1.137,-1.1344,-1.1344,-1.1343,-1.1342,0,-1.1691,-1.1646,-1.1671,-1.1627,-1.1617,-1.1643,-1.1606,-1.162,-1.1588,-1.1603,-1.1604,-1.1555,-1.1559,-1.1513,-1.1509,-1.1485,-1.1528,-1.1507,-1.1535,-1.1528,-1.1575,-1.1571,-1.1737,-1.1755,-1.159,-1.1591,-1.1593,0,-1.1769,-1.1791,-1.1749,-1.1752,-1.1737,-1.1743,-1.1741,-1.1686,-1.1686,-1.1663,-1.168,-1.1679,-1.1674,-1.1684,-1.1649,-1.1645,-1.1623,-1.1681,-1.1622,-1.1635,-1.1622,-1.162,-1.1621,-1.1693,-1.1695,-1.1697,-1.1698,0,-1.1912,-1.1888,-1.1886,-1.1877,-1.1876,-1.1866,-1.1853,-1.1859,-1.18,-1.1803,-1.1806,-1.1803,-1.1798,-1.1797,-1.1787,-1.177,-1.1724,-1.1718,-1.1728,-1.1741,-1.1756,-1.1747,-1.1567,-1.1714,-1.1712,-1.1711,-1.171,-1.171,-1.2022,-1.2038,-1.2011,-1.2011,-1.1995,-1.1984,-1.1995,-1.1965,-1.1966,-1.1956,-1.1925,-1.1933,-1.191,-1.1891,-1.1878,-1.1884,-1.1856,-1.1871,-1.1874,-1.1878,-1.1886,-1.1757,-1.1883,-1.1882,-1.1882,-1.1881,-1.1881,0,-1.216,-1.2139,-1.214,-1.2123,-1.2123,-1.208,-1.2064,-1.2067,-1.2074,-1.2057,-1.2054,-1.2057,-1.2056,-1.2021,-1.2016,-1.2028,-1.2007,-1.2028,-1.2026,-1.2022,-1.1913,-1.1904,-1.2045,-1.2045,-1.2045,-1.2045,-1.2045,-1.2045,-1.2232,-1.2256,-1.223,-1.2246,-1.2225,-1.2232,-1.2226,-1.2215,-1.2201,-1.2206,-1.2205,-1.2182,-1.2157,-1.215,-1.2148,-1.2138,-1.2138,-1.2166,-1.2149,-1.2046,-1.203,-1.2015,-1.2006,-1.2167,-1.2167,-1.2258,-1.2259,-1.2259]},{"header":{"parameterUnit":"m.s-1","parameterCategory":1,"la1":30.2991,"la2":30.254,"lo1":-89.0895,"lo2":-89.0444,"dy":0.0017,"dx":0.0017,"nx":28,"ny":28,"refTime":"2023-11-07T03:00:00:Z","depth":0,"parameterNumber":3,"parameterNumberName":"V-component_of_WINDS"},"data":[0,0,0,0,0,0,0,0,0,0,0,0,0,0,0,0,0,0,0,0,0,0,0,0,0,0,0,0,0,0,0,0,0,0,0,0,0,0,0,0,0,0,0,0,0,0,0,0,0,0,0,0,0,0,0,0,0,0,3.0692,3.0692,0,3.0626,3.0626,3.0625,3.064,3.0642,3.0643,3.0644,3.0568,3.0565,3.0561,0,0,0,0,0,0,0,0,0,0,0,0,0,3.0825,3.0823,3.0693,3.0692,3.0691,3.0627,3.0626,3.0625,3.064,3.0642,3.0643,3.0645,3.0569,3.0565,3.0561,0,0,0,0,0,0,0,0,0,0,0,0,0,3.0764,3.0822,3.0693,3.0691,3.069,3.0627,3.0626,3.0625,3.064,3.0642,3.0644,3.0645,3.057,3.0565,3.0561,3.0492,0,0,3.0546,3.0544,0,0,0,0,0,0,0,0,3.0767,3.0759,3.0692,3.0691,3.069,3.0644,3.0645,3.058,3.0639,3.0659,3.0644,3.0646,3.0591,3.0585,3.0568,3.0489,3.0485,3.0545,3.0543,3.054,3.0539,0,0,0,0,0,0,0,3.0772,3.0762,3.0666,3.0691,3.069,3.0691,3.0685,3.0632,3.0614,3.0657,3.0658,3.065,3.0591,3.0572,3.0566,3.0484,3.0546,3.0541,3.0538,3.0536,3.0347,3.0345,0,0,0,0,0,0,3.0778,3.0765,3.0668,3.0664,3.0735,3.0687,3.068,3.0656,3.0615,3.0611,3.0649,3.0651,3.058,3.0572,3.0563,3.0481,3.054,3.0536,3.0533,3.0349,3.0346,3.0344,0,0,0,0,0,0,3.0781,3.0769,3.0671,3.0715,3.0703,3.0683,3.0656,3.0654,3.0636,3.0609,3.0605,3.0634,3.0581,3.057,3.0511,3.0479,3.0534,3.0529,3.0352,3.0348,3.0345,3.0316,0,0,0,0,0,0,3.0784,3.077,3.0745,3.0715,3.07,3.0621,3.0655,3.0651,3.0629,3.0631,3.0594,3.0589,3.0581,3.0518,3.0506,3.0473,3.0526,3.0354,3.035,3.0346,3.032,3.0312,3.0306,0,0,0,0,0,3.0789,3.0737,3.0744,3.0732,3.0669,3.0619,3.0611,3.0605,3.0626,3.06,3.0583,3.0591,3.0485,3.0512,3.0498,3.0463,3.0356,3.0351,3.0347,3.0323,3.0314,3.0306,0,0,0,0,0,0,3.0761,3.0733,3.074,3.0677,3.0651,3.0622,3.0589,3.0596,3.0561,3.0564,3.0556,3.0547,3.0487,3.0469,3.05,3.0396,3.0423,3.0415,3.041,3.0401,3.0394,3.0399,3.0522,0,0,0,0,0,3.0748,3.0712,3.0689,3.0636,3.0623,3.0608,3.0586,3.0585,3.0556,3.0544,3.0522,3.0492,3.0452,3.0425,3.0387,3.0318,3.031,3.0287,3.028,3.0275,3.0268,3.023,3.022,3.0328,3.0328,3.0329,0,0,3.072,3.07,3.0677,3.063,3.0609,3.0571,3.0599,3.0556,3.0526,3.0536,3.048,3.0463,3.0429,3.0365,3.0335,3.0348,3.0237,3.0269,3.0265,3.026,3.0224,3.0214,3.0205,3.0325,3.0326,3.0326,0,0,3.0649,3.0631,3.0585,3.0565,3.0535,3.0526,3.0516,3.0486,3.0477,3.0421,3.0428,3.0391,3.0322,3.0298,3.0276,3.0199,3.0205,3.0187,3.015,3.0113,3.0105,3.0097,3.0069,3.006,3.018,3.018,3.018,0,3.0616,3.0561,3.056,3.0518,3.0496,3.0508,3.0461,3.044,3.0397,3.0381,3.0397,3.0313,3.029,3.0221,3.0202,3.0184,3.0171,3.019,3.0107,3.0099,3.0092,3.0065,3.0055,3.0178,3.0178,3.0178,3.0178,0,3.0523,3.0484,3.0451,3.0414,3.0389,3.0344,3.0335,3.0309,3.031,3.0299,3.0242,3.0216,3.0173,3.0156,3.0155,3.0087,3.0096,3.0109,3.0136,3.008,3.0054,3.0044,3.0175,3.0176,3.0176,3.0177,0,0,3.043,3.0396,3.0383,3.0367,3.0336,3.0305,3.0261,3.0222,3.02,3.0171,3.0133,3.0076,3.0089,3.0064,3.0061,3.0029,2.997,3.0046,3.0045,3.0033,2.9893,2.9883,2.9871,2.9974,2.9972,2.9971,2.9896,0,3.0356,3.0282,3.0281,3.0211,3.0175,3.0186,3.0148,3.0123,3.0112,3.0078,3.0065,3.0025,3.0045,3.0031,3.0,2.9984,2.9941,2.9989,2.9936,2.9935,2.9944,2.9858,2.9846,2.9777,2.9886,2.9884,2.9883,0,3.0259,3.0231,3.0159,3.0135,3.012,3.0086,3.0051,3.0019,2.9992,2.9986,2.996,2.9962,2.9915,2.9946,2.988,2.9913,2.9891,2.988,2.9877,2.9871,2.9905,2.9849,2.9754,2.9744,2.9867,2.9869,2.987,0,3.0199,3.0143,3.0093,3.0079,3.0049,3.0025,3.0011,2.9986,2.9963,2.9932,2.9917,2.988,2.9859,2.9829,2.982,2.9843,2.9755,2.9784,2.9747,2.9747,2.9727,2.9728,2.9627,2.9714,2.9715,2.9715,2.9715,0,3.0116,3.0071,3.0066,3.0035,2.9985,2.9984,2.9934,2.9921,2.9899,2.9864,2.9871,2.9838,2.9829,2.9793,2.9786,2.9733,2.9723,2.9716,2.9714,2.9715,2.9716,2.97,2.9704,2.9712,2.9713,2.9713,2.9714,0,3.004,3.0034,2.998,2.9959,2.9952,2.9916,2.9896,2.9866,2.9857,2.9813,2.9803,2.9787,2.9746,2.9736,2.9685,2.968,2.9618,2.9621,2.9628,2.9628,2.9592,2.9595,2.9476,2.9461,2.9559,2.9558,2.9557,0,2.9987,2.9953,2.9929,2.9908,2.9894,2.986,2.9838,2.9836,2.9812,2.978,2.9753,2.9714,2.9682,2.9616,2.9598,2.956,2.9562,2.9523,2.9556,2.9558,2.9561,2.9563,2.9559,2.9516,2.9515,2.9514,2.9514,0,2.9894,2.9893,2.9863,2.9833,2.9807,2.9782,2.9758,2.974,2.9734,2.9707,2.9667,2.9643,2.9594,2.9554,2.9516,2.9499,2.9505,2.9504,2.9493,2.9493,2.9499,2.9495,2.9611,2.9506,2.9507,2.9508,2.9508,2.9508,2.9827,2.9798,2.9778,2.9744,2.9727,2.9705,2.9676,2.9665,2.9633,2.9595,2.9595,2.9551,2.9525,2.9475,2.9457,2.9421,2.9432,2.9417,2.9413,2.9409,2.9406,2.9506,2.9414,2.9414,2.9414,2.9415,2.9415,0,2.9734,2.9722,2.9692,2.966,2.9633,2.9645,2.9619,2.9596,2.9558,2.9535,2.9505,2.946,2.9422,2.9403,2.9365,2.934,2.9342,2.933,2.9331,2.9328,2.9398,2.9411,2.933,2.933,2.933,2.933,2.933,2.933,2.9682,2.9635,2.9633,2.9577,2.9564,2.9524,2.9509,2.9488,2.947,2.942,2.939,2.9379,2.9357,2.9319,2.9284,2.9279,2.9265,2.9252,2.9248,2.9314,2.9322,2.9331,2.9343,2.9249,2.9248,2.918,2.918,2.9179]}]]